Location: Bern�tre
(50.1974°N, 2.0915°E)
Time: 08:35:07
(UTC+00:00)

Lacrosse 5 rocket - Pass Details

Date: 18 September 2020
Orbit: 460 x 636 km, 57.0° (Epoch: 27 October)

Event Time Altitude Azimuth Distance (km) Brightness Sun altitude
Rises 19:45:29 0° 272° (W) 2,768 6.2 -17.5°
Reaches altitude 10° 19:47:48 10° 281° (W) 1,901 5.2 -17.8°
Maximum altitude 19:51:51 37° 350° (N) 945 2.8 -18.4°
Enters shadow 19:55:07 15° 52° (NE) 1,652 3.5 -18.9°
